レモン彗星

C/2012 BJ98 ( Lemmon )

English version
Home page
Updated on May 7, 2015

---------------------------------------------------------------------

・ プロフィール

発見日 2012年1月26日、3月1日
発見光度 19.2等、19.1等
発見者 Rik Hill (Mount Lemmon Survey), Alex R. Gibbs and Eric J. Christensen (Mount Lemmon Survey)

・ 写真集

・ 軌道要素

Epoch 2012 Sept. 30.0 TT = JDT 2456200.5
T 2012 Sept. 20.42527 TT                                MPC
q   2.1565814            (2000.0)            P               Q
n   0.01395130     Peri.   72.96870     -0.95547486     +0.29259915
a  17.0893822      Node   124.02953     -0.28519543     -0.88260120
e   0.8738058      Incl.    2.63671     -0.07570567     -0.36796856
P  70.6
From 147 observations 2011 Dec. 29-2013 Feb. 16, mean residual 0".6.

・ 光度変化

        m1 = 7.2 + 5 logΔ + 20.0 log r

---------------------------------------------------------------------

軌道要素はM.P.E.C. 2013-H38に掲載されたものです。
光度グラフはComet for Windowsで作成したものです。

---------------------------------------------------------------------

Copyright(C) Seiichi Yoshida (comet@aerith.net). All rights reserved.